TimeEDT,TemperatureF,Dew PointF,Humidity,Sea Level PressureIn,VisibilityMPH,Wind Direction,Wind SpeedMPH,Gust SpeedMPH,PrecipitationIn,Events,Conditions,WindDirDegrees,DateUTC
12:51 AM,71.1,55.9,59,29.94,10.0,West,3.5,-,N/A,,Clear,280,2013-10-02 04:51:00
1:51 AM,69.1,57.0,65,29.96,10.0,West,3.5,-,N/A,,Clear,280,2013-10-02 05:51:00
2:51 AM,68.0,55.9,65,29.95,10.0,Calm,Calm,-,N/A,,Clear,0,2013-10-02 06:51:00
3:51 AM,68.0,55.0,63,29.95,10.0,Calm,Calm,-,N/A,,Clear,0,2013-10-02 07:51:00
4:51 AM,66.9,55.0,66,29.95,10.0,Calm,Calm,-,N/A,,Clear,0,2013-10-02 08:51:00
5:51 AM,66.9,52.0,59,29.96,10.0,WSW,3.5,-,N/A,,Clear,250,2013-10-02 09:51:00
6:51 AM,66.0,53.1,63,29.96,10.0,SW,5.8,-,N/A,,Clear,220,2013-10-02 10:51:00
7:51 AM,66.9,54.0,63,29.97,10.0,South,4.6,-,N/A,,Clear,180,2013-10-02 11:51:00
8:51 AM,72.0,54.0,53,29.98,10.0,Calm,Calm,-,N/A,,Clear,0,2013-10-02 12:51:00
9:51 AM,73.0,54.0,51,29.99,10.0,West,10.4,-,N/A,,Clear,280,2013-10-02 13:51:00
10:51 AM,73.9,55.0,52,29.98,10.0,WNW,10.4,-,N/A,,Clear,290,2013-10-02 14:51:00
11:51 AM,75.9,57.0,52,29.97,10.0,NW,12.7,-,N/A,,Clear,310,2013-10-02 15:51:00
12:51 PM,79.0,55.0,44,29.94,10.0,West,12.7,-,N/A,,Clear,260,2013-10-02 16:51:00
1:51 PM,82.0,55.9,41,29.93,10.0,West,11.5,20.7,N/A,,Partly Cloudy,280,2013-10-02 17:51:00
2:51 PM,82.9,55.9,39,29.92,10.0,WNW,11.5,24.2,N/A,,Clear,290,2013-10-02 18:51:00
3:51 PM,82.9,57.0,41,29.91,10.0,NW,12.7,23.0,N/A,,Clear,310,2013-10-02 19:51:00
4:51 PM,84.0,57.9,41,29.90,10.0,West,10.4,-,N/A,,Scattered Clouds,270,2013-10-02 20:51:00
5:51 PM,81.0,57.9,45,29.91,10.0,NNW,9.2,-,N/A,,Scattered Clouds,330,2013-10-02 21:51:00
6:51 PM,79.0,59.0,50,29.92,10.0,NNW,6.9,-,N/A,,Partly Cloudy,330,2013-10-02 22:51:00
7:51 PM,79.0,59.0,50,29.94,10.0,NW,4.6,-,N/A,,Partly Cloudy,320,2013-10-02 23:51:00
8:51 PM,77.0,60.1,56,29.97,10.0,NNW,6.9,-,N/A,,Clear,330,2013-10-03 00:51:00
9:51 PM,75.0,59.0,57,29.98,10.0,NNW,5.8,-,N/A,,Clear,330,2013-10-03 01:51:00
10:51 PM,73.9,59.0,59,30.00,10.0,NW,4.6,-,N/A,,Clear,310,2013-10-03 02:51:00
11:51 PM,73.0,59.0,61,30.01,10.0,NW,6.9,-,N/A,,Clear,310,2013-10-03 03:51:00